Regional Weather Roundup
Issued by NWS Mobile, AL

Home | Current Version | Previous Version | Text Only | Print | Product List | Glossary On
Versions: 1 2 3 4 5 6 7 8 9 10 11 12 13 14 15 16 17 18 19 20 21 22 23 24 25 26 27 28 29 30 31 32 33 34 35 36 37 38 39 40 41 42 43 44 45 46 47 48 49 50
000
ASUS44 KMOB 031112
RWRMOB
REGIONAL WEATHER ROUNDUP
NATIONAL WEATHER SERVICE MOBILE AL
600 AM CDT TUE MAY 03 2016

NOTE: "FAIR" INDICATES FEW OR NO CLOUDS BELOW 12,000 FEET WITH NO
      SIGNIFICANT WEATHER AND/OR OBSTRUCTIONS TO VISIBILITY.

  * THESE STATIONS ARE PART OF THE UNIVERSITY OF SOUTH ALABAMA
    MESONET AND ARE NOT UNDER NWS OR FAA QUALITY CONTROL.

ALZ061>064-031200-
COASTAL ALABAMA

CITY           SKY/WX    TMP DP  RH WIND       PRES   REMARKS
MOBILE REG APT FOG       70  70 100 NW6       29.93R VSB 1
BROOKLEY FIELD FOG       70  70 100 NW5       29.93R VSB 3/4
USA CAMPUS*    NOT AVBL
DOG RIVER*     NOT AVBL


CITY           SKY/WX    TMP DP  RH WIND       PRES   REMARKS
MOUNT VERNON*  NOT AVBL
SARALAND*      NOT AVBL
BAY MINETTE*   NOT AVBL
LOXLEY*        NOT AVBL
ROBERTSDALE*   NOT AVBL
FAIRHOPE*      NOT AVBL
ELBERTA*       NOT AVBL
FOLEY*         NOT AVBL
GRAND BAY*     NOT AVBL
DAUPHIN ISLND* NOT AVBL
BON SCOUR NWR* NOT AVBL
GULF SHORES    MOCLDY    67  67 100 N8        29.90S FOG

$$

ALZ051>060-031200-
INTERIOR SOUTHWEST AND SOUTH CENTRAL ALABAMA

CITY           SKY/WX    TMP DP  RH WIND       PRES   REMARKS
GREENVILLE     CLOUDY    67  65  93 N5        29.92R
EVERGREEN      CLOUDY    67  66  97 CALM      29.93R FOG
CASTLEBERRY*   NOT AVBL
ATMORE*        NOT AVBL
DIXIE*         NOT AVBL
ANDALUSIA/OPP  CLOUDY    70  65  84 CALM      29.92S
ANDALUSIA*     NOT AVBL
FLORALA APT    MOCLDY    66  64  94 CALM      29.94R
FLORALA*       NOT AVBL

$$

FLZ001>006-031200-
WESTERN FLORIDA PANHANDLE

CITY           SKY/WX    TMP DP  RH WIND       PRES   REMARKS
PENSACOLA      PTCLDY    69  66  90 N3        29.90S
NAS PENSACOLA  MOCLDY    71  66  84 CALM      29.90
MILTON         NOT AVBL
WHTNG S FIELD  NOT AVBL


CITY           SKY/WX    TMP DP  RH WIND       PRES   REMARKS
WALNUT HILL*   NOT AVBL
JAY*           NOT AVBL
DUKE FIELD     CLEAR     65  64  96 CALM      29.91R
CRESTVIEW      FOG       64  63  96 CALM      29.93R VSB 1/2
VALPARAISO     PTCLDY    69  67  94 N1        29.91R
DESTIN         PTCLDY    76  74  93 NW3       29.90S

$$

MSZ076-079-031200-
INTERIOR SOUTHEAST MISSISSIPPI

CITY           SKY/WX    TMP DP  RH WIND       PRES   REMARKS
LEAKESVILLE*   NOT AVBL
AGRICOLA*      NOT AVBL

$$

MARINE OBSERVATIONS

STATION/POSITION TIME  TEMP    WIND        PRES    WAVE
                       AIR SEA DIR/SP/G            HT/PER
                 (UTC) (F)     (DEG/KT/KT) (MB)    (FT/S)
PASCAGOULA       1000   72     330/  4/  6 1012.2R
PETIT BOIS ISLND 1000   80     310/  7/  8 1012.9S
GRAND BAY        0900   74     310/  4     1014.0S
KATRINA CUT      1000   75     300/  8       N/A
CEDAR POINT      1000   75     300/  8     1012.2S
E DAUPHIN ISLAND 1000   75     250/  5/  6 1012.0S
MIDDLE BAY LIGHT 1000   74     330/  9     1012.5R
USCG MOBILE BAY  1000   70 76   10/  2/  2 1013.2R
STATE DOCKS      1000   70 74              1012.5R
MEAHER PARK      1000   67      20/  2     1012.2S
WEEKS BAY        0900   68                   N/A
FORT MORGAN      1000   76     280/  9/ 10 1011.9S
12 S ORANGE BCH  1050   75 76  230/  6/  6 1011.7R   2/ 6
PENSACOLA BAY    1000   84 71   CALM  /  2 1012.7S
64 S DAUPHIN ISL 1000   75 76     CALM     1012.5R

$$

SELECTED LOCATIONS ACROSS THE REGION

CITY           SKY/WX    TMP DP  RH WIND       PRES   REMARKS
NEW ORLEANS    CLOUDY    70  67  90 N10       29.92R
GULFPORT       CLOUDY    69  68  96 N10       29.91R
PASCAGOULA AP  CLOUDY    71  71 100 N3        29.91R FOG
PASCAGOULA*    NOT AVBL
HATTIESBURG    CLOUDY    66  62  87 NW8       29.96R
LAUREL         CLOUDY    63  59  88 N5        29.96R
MERIDIAN       CLOUDY    63  60  90 NW5       29.95S
JACKSON        CLOUDY    63  60  90 NW3       29.97S
MONTGOMERY     CLOUDY    68  65  90 CALM      29.92S
TROY           CLOUDY    68  66  93 CALM      29.93R
KINSTON*       NOT AVBL
GENEVA*        NOT AVBL
ASHFORD*       NOT AVBL
DOTHAN         MOCLDY    70  68  93 W7        29.95R
PANAMA CITY    CLOUDY    67  66  97 CALM      29.91R FOG

$$




USA.gov is the U.S. government's official web portal to all federal, state and local government web resources and services.